Regional Weather Roundup
Issued by NWS

Home | Current Version | Previous Version | Text Only | Print | Product List | Glossary Off
Versions: 1 2 3 4 5 6 7 8 9 10 11 12 13 14 15 16 17 18 19 20 21 22 23 24 25 26 27 28 29 30 31 32 33 34 35 36 37 38 39 40 41 42 43 44 45 46 47 48 49 50

221
ASUS43 KOAX 221110
RWRNE

WEATHER ROUNDUP FOR NEBRASKA
NATIONAL WEATHER SERVICE OMAHA NE
500 AM CST WED FEB 22 2017

NOTES: SATELLITE DATA IS BEING USED TO AUGMENT CLOUD COVER ABOVE
       12000 FEET.
       "FAIR" INDICATES FEW OR NO CLOUDS BELOW 12,000 FEET WITH NO
       SIGNIFICANT WEATHER AND/OR OBSTRUCTIONS TO VISIBILITY.

  * THESE STATIONS DO NOT REPORT WEATHER SUCH AS RAIN...SNOW OR FOG.

NEZ001>004-019>022-054>056-221200-
NEBRASKA PANHANDLE

CITY           SKY/WX    TMP DP  RH WIND       PRES   REMARKS
SCOTTSBLUFF    CLEAR     41  31  67 W15       29.84F
ALLIANCE       CLEAR     33  30  88 W12       29.81R WCI  24
CHADRON        PTCLDY    40  33  76 SW8       29.77R WCI  34
KIMBALL        CLEAR     37  32  81 NW10      29.87R WCI  30
SIDNEY         CLEAR     39  30  70 NW15      29.84F WCI  31
$$

NEZ057>060-069>072-079>082-221200-
SOUTHWEST NEBRASKA

CITY           SKY/WX    TMP DP  RH WIND       PRES   REMARKS
NORTH PLATTE   CLEAR     28  23  81 NW7       29.77R WCI  21
IMPERIAL       CLEAR     46  24  42 NW15      29.83R
LEXINGTON      CLEAR     39  28  64 NW12      29.70S WCI  32
MCCOOK         CLEAR     43  23  45 W12       29.74R
OGALLALA       CLEAR     43  31  63 SW6       29.82R
$$

NEZ005>010-023>029-035>040-094-221200-
NORTH CENTRAL NEBRASKA

CITY           SKY/WX    TMP DP  RH WIND       PRES   REMARKS
VALENTINE      CLEAR     41  33  73 W9        29.74R
AINSWORTH      CLEAR     41  33  72 W9        29.72R
BROKEN BOW     CLEAR     39  26  59 W6        29.69S WCI  35
O`NEILL        PTCLDY    41  32  69 SW7       29.67R
ORD            CLEAR     38  28  67 NW5       29.67S WCI  34
THEDFORD       CLEAR     41  30  66 W9        29.77R
$$

NEZ041-046>049-061>064-073>077-083>087-221200-
SOUTH CENTRAL NEBRASKA

CITY           SKY/WX    TMP DP  RH WIND       PRES   REMARKS
GRAND ISLAND   CLEAR     43  30  60 S9        29.67S
AURORA         CLEAR     47  28  47 S8        29.67F
HASTINGS       CLOUDY    45  26  47 S6        29.69S
HEBRON         CLOUDY    50  33  51 SW18      29.69F
HOLDREGE       CLOUDY    40  26  55 W7        29.70R
KEARNEY *      CLEAR     39  27  60 SW9       29.68S WCI  33
YORK           CLEAR     41  28  60 S8        29.68F
$$

NEZ011>018-030>034-042>045-221200-
NORTHEAST NEBRASKA

CITY           SKY/WX    TMP DP  RH WIND       PRES   REMARKS
NORFOLK        CLEAR     41  32  70 S12       29.65S
ALBION         CLEAR     40  31  71 CALM      29.67F
BLAIR          CLEAR     50  36  58 SW10      29.69S
FREMONT        CLEAR     48  33  55 SW5       29.69S
TEKAMAH        CLEAR     43  34  70 S5        29.69R
WAYNE          PTCLDY    39  33  79 S8        29.65R WCI  33
$$

NEZ050>053-065>068-078-088>093-221200-
SOUTHEAST NEBRASKA

CITY           SKY/WX    TMP DP  RH WIND       PRES   REMARKS
LINCOLN        CLEAR     43  34  70 S12       29.71F
OMAHA EPPLEY   CLEAR     50  35  56 S13       29.69F
BEATRICE       PTCLDY    49  36  59 CALM      29.72F
FALLS CITY     CLEAR     47  34  60 S9        29.74F
NEBRASKA CITY  CLEAR     46  31  54 W6        29.74R
PLATTSMOUTH    CLEAR     49  33  52 S13       29.71F
$$

NEZ044-045-051>053-067-221200-
OMAHA AREA

CITY           SKY/WX    TMP DP  RH WIND       PRES   REMARKS
OMAHA EPPLEY   CLEAR     50  35  56 S13       29.69F
BLAIR          CLEAR     50  36  58 SW10      29.69S
FREMONT        CLEAR     48  33  55 SW5       29.69S
MILLARD        CLEAR     53  37  55 S5        29.69F
OFFUTT AFB     CLEAR     42  33  71 E8        29.70F
PLATTSMOUTH    CLEAR     49  33  52 S13       29.71F
WAHOO          FAIR      47  32  55 CALM      29.68S
$$




USA.gov is the U.S. government's official web portal to all federal, state and local government web resources and services.